Terug naar catalogus

CAS-2T

CZ-11 R/B

ActiefAmateurradioSSO
NORAD 41847·PAYLOAD·🇨🇳 China

Gelanceerd Nov 9, 2016 vanaf Jiuquan Satellite Launch Center

Loading…

Volgende Passages (komende 24 uur)

TLE

VersSource: AMSAT

Epoch: Sep 14, 2026, 05:34 UTC

1 41847U 16066G   26257.23211286  .00000860  00000-0  13003-3 0  9994
2 41847  98.3755 331.9432 0340498 219.1767 138.4327 14.44840123517652

Volg CAS-2T in realtime met AllMySat

Download on the App Store